Lid_Strength_Index
3 3 3 3 3 3 3 3 3 2 2 2 2 2 2 3 3 3 3 2 3 3 2 2 3 3 3 2 3 3 3 3 4 3 1 1 1 1 1 2 2 2 2
3 3 3 3 3 3 3 3 2 3 3 2 2 2 2 2 3 3 3 2 2 2 2 2 3 2 3 2 3 3 3 3 3 4 2 2 3 3 3 3 2 2 3
3 3 4 3 4 3 3 3 3 3 3 2 2 2 2 2 3 2 2 2 2 1 2 2 2 2 2 2 3 3 3 2 2 3 3 2 3 3 3 3 3 3 3
3 3 3 4 3 3 3 3 3 2 2 2 2 2 2 2 2 2 2 2 1 1 1 1 1 2 2 2 2 2 2 2 2 3 3 3 3 2 2 3 5 4 6
3 3 3 3 3 3 3 3 2 2 2 1 2 3 3 3 3 3 2 2 2 2 1 1 1 2 2 2 1 2 2 2 3 3 3 3 3 4 4 4 6 6 7
3 3 3 3 2 3 3 2 2 2 1 2 3 3 3 3 9 8 5 2 2 2 3 2 2 3 4 5 4 4 2 2 3 3 3 4 4 4 4 5 6 6 8
3 2 2 2 2 3 2 3 2 2 2 4 4 3 4 5 10 10 7 3 3 3 2 2 2 2 3 3 6 5 5 5 3 2 3 4 4 4 4 5 6 6 8
3 3 2 2 2 3 3 3 4 4 4 4 4 4 4 5 11 10 7 3 3 3 2 2 2 3 3 3 3 3 3 3 2 2 2 3 3 3 4 4 6 8 8
3 3 2 2 3 3 3 4 4 4 4 4 4 5 4 5 11 10 5 3 2 2 2 2 2 3 9 8 3 5 5 5 7 7 7 8 9 8 6 6 7 7 9
3 3 2 2 2 3 3 4 4 4 4 4 5 4 6 5 11 10 5 2 2 3 3 4 7 5 10 9 4 5 6 5 5 5 6 7 7 8 7 5 6 7 8
3 2 2 3 3 3 4 4 4 3 3 4 4 5 5 5 7 10 7 2 2 3 3 4 5 11 10 10 7 4 5 5 6 4 5 4 5 4 5 5 6 6 8
3 3 3 3 2 3 3 4 4 4 4 4 4 4 4 4 9 10 10 7 6 3 4 4 7 12 11 10 7 11 10 6 4 4 5 5 5 5 6 6 5 4 3
3 3 3 3 2 3 3 4 4 4 3 3 4 3 3 4 4 10 11 10 7 4 3 9 12 12 11 10 11 10 8 4 4 4 4 5 5 5 3 3 4 4 4
3 3 3 3 4 3 3 3 4 4 4 3 4 4 4 4 4 4 5 6 8 6 8 8 8 7 8 7 7 6 3 4 4 5 4 5 4 3 4 3 3 4 5
3 3 3 3 3 4 3 4 3 4 4 3 3 2 3 3 3 6 5 4 4 6 6 4 4 4 5 4 3 3 3 4 4 5 3 3 3 3 4 5 5 6 6
3 3 3 3 4 4 5 7 12 9 9 8 8 5 3 6 11 10 11 11 11 10 4 4 4 4 4 3 3 3 3 4 3 3 3 2 2 3 3 5 6 6 6
3 3 3 3 3 4 5 5 6 8 13 12 12 10 8 8 12 11 12 12 11 8 5 4 3 3 3 2 2 2 2 3 3 2 3 3 3 3 4 4 5 6 7
3 7 3 3 3 4 5 5 4 6 6 7 12 11 12 12 12 13 13 10 6 6 4 4 3 3 3 3 2 2 2 3 2 2 2 2 3 3 4 4 4 5 6
3 3 3 3 3 5 5 6 6 6 5 5 8 11 13 13 13 14 12 4 4 4 4 4 3 3 2 2 2 2 2 2 2 3 3 3 3 3 3 3 3 9 8
3 6 5 3 4 5 6 6 7 7 4 5 6 6 8 8 6 6 6 5 4 4 3 3 3 3 3 2 2 2 3 4 3 3 3 3 3 3 3 4 4 4 5
2 4 7 3 4 4 5 5 6 6 5 5 4 7 12 4 4 4 4 5 4 3 3 2 3 3 3 3 3 3 3 3 3 3 3 3 3 3 3 3 3 4 4
2 3 4 3 3 3 4 4 5 5 6 5 5 7 15 5 4 3 3 3 3 2 2 2 2 2 3 2 2 3 3 3 4 3 3 3 3 3 3 3 4 4 5
3 3 3 3 3 6 6 4 4 5 5 5 5 6 8 6 4 4 3 2 3 2 2 2 2 2 2 2 2 2 2 2 2 2 3 3 3 3 3 3 3 4 5
4 4 4 3 4 4 4 4 4 8 5 5 5 5 7 5 4 4 3 3 2 2 2 2 2 2 2 2 2 2 2 2 2 3 4 4 4 6 4 4 4 4 4
4 4 4 5 4 5 5 4 4 4 4 4 4 5 6 5 5 3 3 3 3 3 2 1 1 1 2 2 2 3 5 11 5 6 3 3 3 3 2 3 3 4 4
5 3 3 4 4 5 5 5 5 5 4 4 3 4 4 5 5 4 3 3 2 2 2 2 2 1 1 1 2 5 10 12 9 11 4 3 4 4 3 2 3 4 5